Location: Gazon
(48.1318°N, 1.2708°W)
Time: 23:20:36
(UTC+00:00)

Cosmos 2298 Rocket - Pass Details

Date: 18 September 2020
Orbit: 777 x 783 km, 74.0° (Epoch: 25 October)

Event Time Altitude Azimuth Distance (km) Brightness Sun altitude
Rises 19:56:57 0° 195° (SSW) 3,257 7.2 -18.0°
Reaches altitude 10° 19:59:19 10° 194° (SSW) 2,334 6.4 -18.4°
Maximum altitude 20:04:37 75° 110° (ESE) 816 3.9 -19.2°
Drops below altitude 10° 20:09:57 10° 26° (NNE) 2,349 6.5 -20.0°
Sets 20:12:21 0° 25° (NNE) 3,281 7.3 -20.4°
